Location: Fort Wayne
(41.1310°N, 85.1290°W)
Time: 04:12:45
(UTC-05:00)

Cosmos 2219 Rocket - Visible Passes

Search period start: 24 January 2017 00:00
Search period end: 03 February 2017 00:00
Orbit: 829 x 845 km, 71.0° (Epoch: 23 January)

Date Brightness Start Highest point End Pass type
(mag) Time Alt. Az. Time Alt. Az. Time Alt. Az.
25 Jan 4.9 19:30:03 10° NW 19:31:04 10° NW 19:32:06 10° NNW visible
26 Jan 4.8 19:12:58 10° WNW 19:14:38 11° NW 19:16:18 10° NNW visible
27 Jan 4.7 18:56:04 10° WNW 18:58:12 12° NW 19:00:20 10° NNW visible
28 Jan 4.7 18:39:16 10° WNW 18:41:46 13° NW 18:44:16 10° NNW visible
29 Jan 4.6 18:22:32 10° WNW 18:25:20 14° NW 18:28:10 10° NNW visible
